Weather History for KMTN - January, 2013

Change the Weather History Date:

Saturday, January 5, 2013

  Actual Average Record
Temperature  
Mean Temperature 36 °F -  
Max Temperature 44 °F 41 °F 66 °F (1997)
Min Temperature 28 °F 28 °F 15 °F (1999)
Degree Days  
Heating Degree Days 29    
Moisture  
Dew Point 25 °F    
Average Humidity 67    
Maximum Humidity 93    
Minimum Humidity 39    
Precipitation  
Precipitation 0.00 in - - ()
Sea Level Pressure  
Sea Level Pressure 30.26 in    
Wind  
Wind Speed 5 mph (WSW)    
Max Wind Speed 10 mph    
Max Gust Speed 20 mph    
Visibility 10 miles    
Events      
Averages and records for this station are not official NWS values.
T = Trace of Precipitation, MM = Missing Value Source: NWS Daily Summary

Daily Weather History Graph

Daily Weather History Graph

Search for Another Location

Airport or City:

Trip Planner

Search our weather history database for the weather conditions in past years. The results will help you decide how hot, cold, wet, or windy it might be!

Date:

Astronomy

Jan. 05, 2013 Rise Set
Actual Time 7:25 AM EST 4:56 PM EST
Civil Twilight 6:55 AM EST 5:26 PM EST
Nautical Twilight 6:22 AM EST 6:00 PM EST
Astronomical Twilight 5:49 AM EST 6:32 PM EST
Moon 12:31 AM EST (1/5) 11:44 AM EST (1/5)
Length of Visible Light 10h 30m
Length of Day
9h 31m
Last Quarter, 44% of the Moon is Illuminated
Jan 5
Last Quarter
Jan 11
New
Jan 18
First Quarter
Jan 26
Full
Feb 3
Last Quarter

Hourly Weather History & Observations

Time (EST) Temp. Windchill Dew Point Humidity Pressure Visibility Wind Dir Wind Speed Gust Speed Precip Events Conditions
12:18 AM 35.6 °F 28.6 °F 21.2 °F 56% 30.15 in 10.0 mi WSW 9.2 mph - N/A   Clear
1:00 AM 35.6 °F 30.7 °F 21.2 °F 56% 30.15 in 10.0 mi WSW 5.8 mph - N/A   Clear
1:21 AM 35.6 °F 29.9 °F 21.2 °F 56% 30.15 in 10.0 mi WSW 6.9 mph - N/A   Clear
1:42 AM 35.6 °F 30.7 °F 21.2 °F 56% 30.15 in 10.0 mi WSW 5.8 mph - N/A   Clear
2:03 AM 35.6 °F 32.8 °F 21.2 °F 56% 30.17 in 10.0 mi WSW 3.5 mph - N/A   Clear
2:24 AM 33.8 °F 30.8 °F 21.2 °F 60% 30.18 in 10.0 mi SW 3.5 mph - N/A   Clear
2:45 AM 33.8 °F 29.6 °F 21.2 °F 60% 30.19 in 10.0 mi WSW 4.6 mph - N/A   Clear
3:06 AM 33.8 °F 29.6 °F 21.2 °F 60% 30.20 in 10.0 mi WSW 4.6 mph - N/A   Clear
3:27 AM 33.8 °F 30.8 °F 21.2 °F 60% 30.21 in 10.0 mi WSW 3.5 mph - N/A   Clear
3:51 AM 33.8 °F 29.6 °F 21.2 °F 60% 30.22 in 10.0 mi SW 4.6 mph - N/A   Clear
4:12 AM 33.8 °F 30.8 °F 21.2 °F 60% 30.23 in 10.0 mi SW 3.5 mph - N/A   Clear
4:54 AM 32.0 °F 24.8 °F 21.2 °F 64% 30.24 in 10.0 mi West 8.1 mph - N/A   Clear
5:55 AM 33.8 °F 28.6 °F 19.4 °F 56% 30.29 in 10.0 mi West 5.8 mph - N/A   Mostly Cloudy
6:55 AM 28.4 °F 24.6 °F 19.4 °F 69% 30.31 in 10.0 mi WSW 3.5 mph - N/A   Clear
7:50 AM 28.4 °F - 21.2 °F 74% 30.34 in 10.0 mi Calm Calm - N/A   Clear
8:50 AM 33.8 °F - 24.8 °F 70% 30.36 in 10.0 mi Calm Calm - N/A   Clear
9:45 AM 37.4 °F 30.3 °F 23.0 °F 56% 30.39 in 10.0 mi WNW 10.4 mph 19.6 mph N/A   Clear
10:45 AM 39.2 °F 33.6 °F 21.2 °F 49% 30.39 in 10.0 mi NNW 8.1 mph - N/A   Clear
12:45 PM 42.8 °F 37.0 °F 23.0 °F 46% 30.34 in 10.0 mi NW 10.4 mph - N/A   Partly Cloudy
1:45 PM 44.6 °F 43.1 °F 21.2 °F 39% 30.31 in 10.0 mi West 3.5 mph - N/A   Partly Cloudy
2:45 PM 39.2 °F 35.0 °F 26.6 °F 61% 30.31 in 10.0 mi ESE 5.8 mph - N/A   Partly Cloudy
3:45 PM 39.2 °F 35.0 °F 26.6 °F 61% 30.31 in 10.0 mi ESE 5.8 mph - N/A   Scattered Clouds
4:45 PM 37.4 °F 33.8 °F 28.4 °F 70% 30.31 in 10.0 mi SE 4.6 mph - N/A   Scattered Clouds
5:50 PM 35.6 °F - 28.4 °F 75% 30.31 in 10.0 mi Calm Calm - N/A   Clear
7:45 PM 30.2 °F - 28.4 °F 93% 30.29 in 10.0 mi Calm Calm - N/A   Clear
8:45 PM 32.0 °F - 28.4 °F 87% 30.27 in 10.0 mi Calm Calm - N/A   Clear
9:45 PM 33.8 °F - 30.2 °F 87% 30.26 in 10.0 mi Calm Calm - N/A   Clear
10:15 PM 33.8 °F - 32.0 °F 93% 30.26 in 10.0 mi Calm Calm - N/A   Clear
10:36 PM 33.8 °F - 32.0 °F 93% 30.25 in 10.0 mi Calm Calm - N/A   Clear
10:57 PM 35.6 °F - 32.0 °F 87% 30.27 in 10.0 mi Calm Calm - N/A   Clear
11:21 PM 37.4 °F - 32.0 °F 81% 30.25 in 10.0 mi Calm Calm - N/A   Mostly Cloudy
11:42 PM 35.6 °F 31.7 °F 32.0 °F 87% 30.24 in 10.0 mi SE 4.6 mph - N/A   Scattered Clouds